Location: Baix
(44.7118°N, 4.7648°E)
Time: 01:36:47
(UTC+00:00)

SJ 16-02 - Pass Details

Date: 07 August 2020
Orbit: 607 x 616 km, 75.0° (Epoch: 19 September)

Event Time Altitude Azimuth Distance (km) Brightness Sun altitude
Exits shadow 01:25:11 31° 110° (ESE) 1,089 2.6 -25.0°
Maximum altitude 01:25:32 31° 101° (E) 1,079 2.7 -24.9°
Drops below altitude 10° 01:29:26 10° 39° (NE) 1,980 5.0 -24.6°
Sets 01:31:51 0° 29° (NNE) 2,888 6.2 -24.4°
